Change the Weather History Date:

Friday, April 5, 2013

  Actual Average Record
Temperature  
Mean Temperature 55 °F 49 °F  
Max Temperature 58 °F 59 °F 75 °F (1952)
Min Temperature 51 °F 39 °F 29 °F (1929)
Degree Days  
Heating Degree Days 10 16  
Month to date heating degree days 46 81  
Since 1 July heating degree days 3669 3977  
Cooling Degree Days 0 0  
Month to date cooling degree days 0 0  
Year to date cooling degree days 0 0  
Growing Degree Days 4 (Base 50)    
Moisture  
Dew Point 49 °F    
Average Humidity 83    
Maximum Humidity 93    
Minimum Humidity 72    
Precipitation  
Precipitation 0.08 in 0.13 in 1.12 in (1991)
Month to date precipitation 0.31 0.67  
Year to date precipitation 5.40 17.96  
Snow  
Snow 0.00 in - - ()
Month to date snowfall 0.0  
Since 1 July snowfall 0.0  
Snow Depth 0.00 in    
Sea Level Pressure  
Sea Level Pressure 29.96 in    
Wind  
Wind Speed 10 mph (South)    
Max Wind Speed 18 mph    
Max Gust Speed 22 mph    
Visibility 10 miles    
Events Rain    
T = Trace of Precipitation, MM = Missing Value Source: NWS Daily Summary

Daily Weather History Graph

Daily Weather History Graph

Search for Another Location

Airport or City:

Trip Planner

Search our weather history database for the weather conditions in past years. The results will help you decide how hot, cold, wet, or windy it might be!

Date:

Astronomy

Apr. 05, 2013 Rise Set
Actual Time 6:46 AM PDT 7:45 PM PDT
Civil Twilight 6:16 AM PDT 8:14 PM PDT
Nautical Twilight 5:41 AM PDT 8:50 PM PDT
Astronomical Twilight 5:04 AM PDT 9:27 PM PDT
Moon 4:06 AM PDT (4/5) 3:06 PM PDT (4/5)
Length of Visible Light 13h 57m
Length of Day
12h 59m
Waning Crescent, 22% of the Moon is Illuminated
Apr 5
Waning Crescent
Apr 10
New
Apr 18
First Quarter
Apr 25
Full
May 2
Last Quarter

Hourly Weather History & Observations

Time (PDT) Temp. Dew Point Humidity Pressure Visibility Wind Dir Wind Speed Gust Speed Precip Events Conditions
12:54 AM 52.0 °F 48.9 °F 89% 29.94 in 10.0 mi South 12.7 mph - N/A   Mostly Cloudy
1:37 AM 51.8 °F 48.2 °F 88% 29.94 in 10.0 mi South 11.5 mph - N/A   Overcast
1:54 AM 52.0 °F 48.9 °F 89% 29.95 in 10.0 mi South 11.5 mph - N/A   Overcast
2:14 AM 51.8 °F 48.2 °F 88% 29.94 in 10.0 mi South 11.5 mph - N/A   Overcast
2:54 AM 51.1 °F 48.9 °F 92% 29.95 in 10.0 mi South 10.4 mph - 0.00 in   Overcast
3:54 AM 51.1 °F 48.9 °F 92% 29.97 in 10.0 mi South 8.1 mph - 0.00 in Rain Light Rain
4:54 AM 51.1 °F 48.0 °F 89% 29.98 in 10.0 mi South 8.1 mph - 0.00 in   Overcast
5:54 AM 51.1 °F 48.9 °F 92% 29.98 in 10.0 mi South 6.9 mph - N/A   Overcast
6:13 AM 51.8 °F 48.2 °F 88% 29.98 in 10.0 mi South 6.9 mph - N/A   Overcast
6:54 AM 51.1 °F 48.0 °F 89% 29.98 in 10.0 mi SSE 8.1 mph - N/A   Overcast
7:54 AM 52.0 °F 48.9 °F 89% 29.99 in 10.0 mi South 6.9 mph - N/A   Mostly Cloudy
8:54 AM 54.0 °F 50.0 °F 86% 29.99 in 10.0 mi SSW 5.8 mph - N/A   Mostly Cloudy
9:54 AM 57.0 °F 51.1 °F 81% 29.99 in 10.0 mi South 11.5 mph - N/A   Mostly Cloudy
10:13 AM 55.4 °F 50.0 °F 82% 29.99 in 10.0 mi SSW 12.7 mph - 0.00 in   Mostly Cloudy
10:54 AM 55.0 °F 50.0 °F 83% 30.00 in 10.0 mi WSW 13.8 mph - 0.00 in   Overcast
11:54 AM 55.9 °F 50.0 °F 80% 30.00 in 10.0 mi SSW 12.7 mph - N/A   Mostly Cloudy
12:54 PM 57.9 °F 48.9 °F 72% 29.99 in 10.0 mi SSW 15.0 mph - N/A   Mostly Cloudy
1:54 PM 55.0 °F 51.1 °F 86% 30.00 in 9.0 mi WSW 11.5 mph - 0.00 in Rain Light Rain
2:54 PM 55.0 °F 51.1 °F 86% 30.00 in 10.0 mi WSW 6.9 mph - 0.01 in Rain Light Rain
3:54 PM 54.0 °F 51.1 °F 90% 29.99 in 10.0 mi SSW 8.1 mph - 0.04 in Rain Light Rain
4:54 PM 55.0 °F 51.1 °F 86% 29.97 in 10.0 mi SSW 10.4 mph - 0.00 in Rain Light Rain
5:54 PM 55.0 °F 48.9 °F 80% 29.96 in 10.0 mi SSW 9.2 mph - 0.01 in   Overcast
6:54 PM 53.1 °F 50.0 °F 89% 29.94 in 10.0 mi SSE 4.6 mph - 0.02 in Rain Light Rain
7:54 PM 53.1 °F 50.0 °F 89% 29.91 in 10.0 mi South 6.9 mph - 0.00 in   Overcast
8:54 PM 53.1 °F 50.0 °F 89% 29.89 in 10.0 mi South 9.2 mph - 0.00 in   Overcast
9:54 PM 53.1 °F 50.0 °F 89% 29.90 in 10.0 mi South 8.1 mph - 0.01 in   Overcast
10:54 PM 53.1 °F 48.9 °F 86% 29.89 in 10.0 mi South 10.4 mph - 0.01 in   Overcast
11:54 PM 52.0 °F 48.9 °F 89% 29.91 in 10.0 mi SSW 12.7 mph - 0.03 in Rain Light Rain